Вернуться в каталог

UME 2

ISS-B

АктивенНаукаLEO
NORAD 10674·PAYLOAD·🇯🇵 Japan

Запущен Feb 16, 1978 с Tanegashima Space Center

Loading…

Ближайшие Пролёты (ближайшие 24 часа)

TLE

СвежийSource: Space-Track

Эпоха: Sep 14, 2026, 11:07 UTC

1 10674U 78018A   26257.46358052 -.00000058  00000-0 -13013-4 0  9994
2 10674  69.3615  71.2530 0163814   6.3271  12.6709 13.43717134382631

Отслеживайте UME 2 в реальном времени с AllMySat

Download on the App Store